When you browse on this site, cookies collect data to enhance your experience and personalize the content and advertising you see.
Visit our Privacy Policy to learn more. By continuing to use the site, you agree to this use of cookies and data.
  • In Switzerland
  • List of Countries
  • For 7 days
  • Water Temperature
  • Weather Map
  • Weather Widgets
  • user-avatar
    Login

    Hourly Weather Luanda

    Today, 19 February, Wednesday

    Time Temperature Precipitation Wind Pressure Humidity
    00:00 +28°C° 0 mm 3 mps 753 mmHg 83%
    01:00 +28°C° 0 mm 3 mps 753 mmHg 82%
    02:00 +28°C° 0 mm 3 mps 752 mmHg 83%
    03:00 +28°C° 0 mm 3 mps 752 mmHg 84%
    04:00 +28°C° 0 mm 3 mps 752 mmHg 84%
    05:00 +28°C° 0 mm 2 mps 752 mmHg 85%
    06:00 +28°C° 0 mm 2 mps 752 mmHg 86%
    07:00 +28°C° 0 mm 2 mps 753 mmHg 87%
    08:00 +28°C° 0 mm 2 mps 753 mmHg 83%
    09:00 +29°C° 0 mm 1 mps 753 mmHg 79%
    10:00 +30°C° 0 mm 1 mps 753 mmHg 75%
    11:00 +31°C° 0 mm 2 mps 753 mmHg 68%
    12:00 +34°C° 0 mm 2 mps 753 mmHg 62%
    13:00 +35°C° 0 mm 3 mps 753 mmHg 55%
    14:00 +34°C° 0.6 mm 3 mps 752 mmHg 61%
    15:00 +31°C° 0.6 mm 3 mps 752 mmHg 68%
    16:00 +30°C° 0.6 mm 3 mps 751 mmHg 74%
    17:00 +30°C° 0 mm 3 mps 751 mmHg 74%
    18:00 +29°C° 0 mm 3 mps 752 mmHg 74%
    19:00 +29°C° 0 mm 2 mps 752 mmHg 74%
    20:00 +29°C° 0 mm 2 mps 752 mmHg 75%
    21:00 +29°C° 0 mm 2 mps 752 mmHg 77%
    22:00 +28°C° 0 mm 1 mps 753 mmHg 79%
    23:00 +28°C° 0 mm 2 mps 753 mmHg 79%

    Tomorrow, 20 February, Thursday

    Time Temperature Precipitation Wind Pressure Humidity
    00:00 +28°C° 0 mm 3 mps 752 mmHg 80%
    01:00 +27°C° 0 mm 4 mps 752 mmHg 81%
    02:00 +27°C° 0 mm 3 mps 752 mmHg 82%
    03:00 +27°C° 0 mm 3 mps 752 mmHg 83%
    04:00 +27°C° 0 mm 2 mps 752 mmHg 85%
    05:00 +27°C° 0 mm 3 mps 752 mmHg 84%
    06:00 +27°C° 0 mm 3 mps 752 mmHg 84%
    07:00 +27°C° 0 mm 3 mps 752 mmHg 84%
    08:00 +29°C° 0 mm 3 mps 752 mmHg 77%
    09:00 +30°C° 0 mm 3 mps 753 mmHg 69%
    10:00 +33°C° 0 mm 3 mps 753 mmHg 62%
    11:00 +34°C° 0 mm 3 mps 752 mmHg 57%
    12:00 +36°C° 0 mm 3 mps 752 mmHg 52%
    13:00 +37°C° 0 mm 3 mps 751 mmHg 47%
    14:00 +36°C° 0 mm 4 mps 750 mmHg 52%
    15:00 +35°C° 0 mm 5 mps 750 mmHg 57%
    16:00 +35°C° 0 mm 6 mps 749 mmHg 62%
    17:00 +33°C° 0.1 mm 6 mps 749 mmHg 68%
    18:00 +32°C° 0.1 mm 5 mps 750 mmHg 74%
    19:00 +29°C° 0.1 mm 5 mps 750 mmHg 80%
    20:00 +29°C° 0 mm 5 mps 751 mmHg 82%
    21:00 +29°C° 0 mm 5 mps 751 mmHg 84%
    22:00 +29°C° 0 mm 4 mps 752 mmHg 85%
    23:00 +28°C° 0 mm 4 mps 752 mmHg 86%

    Day after tomorrow, 21 February, Friday

    Time Temperature Precipitation Wind Pressure Humidity
    00:00 +28°C° 0 mm 4 mps 751 mmHg 87%
    01:00 +28°C° 0 mm 4 mps 751 mmHg 88%
    02:00 +28°C° 0 mm 4 mps 751 mmHg 89%
    03:00 +28°C° 0 mm 4 mps 751 mmHg 90%
    04:00 +27°C° 0 mm 4 mps 750 mmHg 91%
    05:00 +27°C° 0 mm 4 mps 751 mmHg 90%
    06:00 +28°C° 0 mm 4 mps 751 mmHg 90%
    07:00 +28°C° 0 mm 3 mps 752 mmHg 89%
    14:00 +37°C° 0 mm 5 mps 750 mmHg 50%
    15:00 +36°C° 0 mm 6 mps 749 mmHg 54%
    16:00 +36°C° 0 mm 6 mps 749 mmHg 57%
    17:00 +34°C° 0 mm 6 mps 749 mmHg 64%
    18:00 +32°C° 0 mm 6 mps 749 mmHg 70%
    19:00 +29°C° 0 mm 5 mps 750 mmHg 77%
    20:00 +29°C° 0 mm 5 mps 751 mmHg 79%
    21:00 +29°C° 0 mm 5 mps 751 mmHg 81%
    22:00 +29°C° 0 mm 4 mps 752 mmHg 83%
    23:00 +28°C° 0 mm 4 mps 752 mmHg 84%

    22 February, Saturday

    Time Temperature Precipitation Wind Pressure Humidity
    00:00 +28°C° 0 mm 3 mps 751 mmHg 85%
    01:00 +28°C° 0 mm 3 mps 751 mmHg 86%
    02:00 +28°C° 0 mm 3 mps 751 mmHg 87%
    03:00 +28°C° 0 mm 3 mps 751 mmHg 88%
    04:00 +27°C° 0 mm 3 mps 751 mmHg 89%
    05:00 +27°C° 0 mm 3 mps 751 mmHg 89%
    06:00 +27°C° 0 mm 3 mps 752 mmHg 88%
    07:00 +27°C° 0 mm 3 mps 752 mmHg 88%
    08:00 +29°C° 0 mm 2 mps 752 mmHg 79%
    09:00 +31°C° 0 mm 1 mps 752 mmHg 69%
    10:00 +33°C° 0 mm 1 mps 753 mmHg 60%
    11:00 +35°C° 0 mm 2 mps 752 mmHg 55%
    12:00 +36°C° 0 mm 3 mps 751 mmHg 49%
    13:00 +39°C° 0 mm 5 mps 751 mmHg 44%
    14:00 +37°C° 0 mm 5 mps 750 mmHg 47%
    15:00 +36°C° 0 mm 6 mps 750 mmHg 51%
    16:00 +35°C° 0 mm 6 mps 749 mmHg 54%
    17:00 +33°C° 0 mm 6 mps 750 mmHg 62%
    18:00 +32°C° 0 mm 6 mps 750 mmHg 69%
    19:00 +29°C° 0 mm 5 mps 751 mmHg 76%
    20:00 +29°C° 0 mm 5 mps 752 mmHg 78%
    21:00 +29°C° 0 mm 4 mps 752 mmHg 79%
    22:00 +28°C° 0 mm 3 mps 753 mmHg 81%
    23:00 +28°C° 0 mm 3 mps 753 mmHg 81%

    23 February, Sunday

    Time Temperature Precipitation Wind Pressure Humidity
    00:00 +28°C° 0 mm 3 mps 753 mmHg 81%
    01:00 +28°C° 0 mm 3 mps 752 mmHg 81%
    02:00 +28°C° 0 mm 3 mps 752 mmHg 82%
    03:00 +28°C° 0 mm 3 mps 752 mmHg 83%
    04:00 +27°C° 0 mm 3 mps 752 mmHg 84%
    05:00 +27°C° 0 mm 3 mps 752 mmHg 83%
    06:00 +27°C° 0 mm 3 mps 752 mmHg 83%
    07:00 +27°C° 0 mm 4 mps 753 mmHg 82%
    08:00 +28°C° 0 mm 3 mps 753 mmHg 78%
    09:00 +29°C° 0 mm 3 mps 753 mmHg 75%
    10:00 +29°C° 0 mm 3 mps 754 mmHg 71%
    11:00 +30°C° 0 mm 3 mps 753 mmHg 69%
    12:00 +30°C° 0 mm 2 mps 753 mmHg 67%
    13:00 +31°C° 0 mm 2 mps 752 mmHg 64%
    14:00 +30°C° 0 mm 2 mps 752 mmHg 67%
    15:00 +30°C° 0 mm 3 mps 751 mmHg 69%
    16:00 +30°C° 0 mm 3 mps 751 mmHg 71%
    17:00 +29°C° 0 mm 3 mps 751 mmHg 72%
    18:00 +29°C° 0 mm 3 mps 752 mmHg 74%
    19:00 +28°C° 0 mm 3 mps 752 mmHg 76%
    20:00 +28°C° 0 mm 3 mps 753 mmHg 77%
    21:00 +28°C° 0 mm 3 mps 753 mmHg 78%
    22:00 +28°C° 0 mm 3 mps 754 mmHg 79%
    23:00 +27°C° 0 mm 3 mps 753 mmHg 81%

    24 February, Monday

    Time Temperature Precipitation Wind Pressure Humidity
    00:00 +27°C° 0 mm 3 mps 753 mmHg 82%
    01:00 +27°C° 0 mm 3 mps 753 mmHg 84%
    02:00 +27°C° 0 mm 3 mps 753 mmHg 85%
    03:00 +26°C° 0 mm 3 mps 753 mmHg 85%
    04:00 +26°C° 0 mm 4 mps 752 mmHg 86%
    05:00 +26°C° 0 mm 3 mps 753 mmHg 85%
    06:00 +26°C° 0 mm 3 mps 753 mmHg 84%
    07:00 +27°C° 0 mm 2 mps 753 mmHg 83%
    08:00 +29°C° 0 mm 2 mps 754 mmHg 74%
    09:00 +30°C° 0 mm 1 mps 754 mmHg 64%
    10:00 +32°C° 0 mm 1 mps 754 mmHg 55%
    11:00 +34°C° 0 mm 2 mps 754 mmHg 52%
    12:00 +35°C° 0 mm 3 mps 753 mmHg 49%
    13:00 +36°C° 0 mm 4 mps 753 mmHg 47%
    14:00 +35°C° 0 mm 4 mps 752 mmHg 50%
    15:00 +34°C° 0 mm 4 mps 752 mmHg 53%
    16:00 +33°C° 0 mm 4 mps 752 mmHg 56%
    17:00 +32°C° 0 mm 4 mps 752 mmHg 61%
    18:00 +30°C° 0 mm 4 mps 752 mmHg 67%
    19:00 +29°C° 0 mm 4 mps 753 mmHg 72%
    20:00 +28°C° 0 mm 3 mps 753 mmHg 73%
    21:00 +28°C° 0 mm 3 mps 754 mmHg 75%
    22:00 +28°C° 0 mm 2 mps 754 mmHg 77%
    23:00 +28°C° 0 mm 3 mps 754 mmHg 77%
    Show more